Bridgetown, Barbados

4:09 AM AST on October 19, 2018 (GMT -0400)
Bridgetown

Weather History for 78954 - December, 2003

Change the Weather History Date:

Monday, December 22, 2003

  Actual Average Record
Temperature  
Mean Temperature 80 °F -  
Max Temperature 82 °F 82 °F - ()
Min Temperature 77 °F 74 °F - ()
Cooling Degree Days 14    
Growing Degree Days 30 (Base 50)    
Moisture  
Dew Point 74 °F    
Average Humidity 81    
Maximum Humidity 89    
Minimum Humidity 70    
Precipitation  
Precipitation 0.00 in - - ()
Sea Level Pressure  
Sea Level Pressure 29.97 in    
Wind  
Wind Speed 10 mph ()    
Max Wind Speed 18 mph    
Max Gust Speed -    
Visibility 6.2 miles    
Events Rain    
T = Trace of Precipitation, MM = Missing Value Source: Averaged Metar Reports

Daily Weather History Graph

Daily Weather History Graph

Search for Another Location

Airport or City:

Astronomy

Dec. 22, 2003 Rise Set
Actual Time 6:15 AM AST 5:37 PM AST
Civil Twilight 5:52 AM AST 6:00 PM AST
Nautical Twilight 5:25 AM AST 6:26 PM AST
Astronomical Twilight 4:59 AM AST 6:53 PM AST
Moon 5:18 AM AST (12/22) 4:56 PM AST (12/22)
Length of Visible Light 12h 07m
Length of Day
11h 21m
Waning Crescent, 1% of the Moon is Illuminated
Dec 22
Waning Crescent
Dec 23
New
Dec 30
First Quarter
Jan 7
Full
Jan 15
Last Quarter

Hourly Weather History & Observations

Time (AST) Temp. Heat Index Dew Point Humidity Pressure Visibility Wind Dir Wind Speed Gust Speed Precip Events Conditions
12:00 AM 78.8 °F - 75.2 °F 89% 30.01 in 6.2 mi ENE 8.1 mph - N/A   Mostly Cloudy
1:00 AM 78.8 °F - 75.2 °F 89% 30.01 in 6.2 mi East 8.1 mph - N/A   Mostly Cloudy
2:00 AM 78.8 °F - 73.4 °F 83% 29.98 in 6.2 mi ENE 9.2 mph - N/A   Mostly Cloudy
3:00 AM 78.8 °F - 75.2 °F 89% 29.95 in 6.2 mi ENE 9.2 mph - N/A   Mostly Cloudy
4:00 AM 78.8 °F - 73.4 °F 83% 29.95 in 6.2 mi ENE 8.1 mph - N/A   Mostly Cloudy
5:00 AM 78.8 °F - 73.4 °F 83% 29.98 in 6.2 mi ENE 10.4 mph - N/A   Mostly Cloudy
6:00 AM 77.0 °F - 73.4 °F 89% 29.98 in 6.2 mi ENE 8.1 mph - N/A   Mostly Cloudy
7:00 AM 78.8 °F - 75.2 °F 89% 29.98 in 6.2 mi ENE 11.5 mph - N/A   Mostly Cloudy
9:00 AM 82.4 °F 89.5 °F 75.2 °F 79% 30.04 in 6.2 mi ENE 15.0 mph - N/A   Mostly Cloudy
10:00 AM 82.4 °F 89.5 °F 75.2 °F 79% 30.01 in 6.2 mi ENE 16.1 mph - N/A   Mostly Cloudy
11:00 AM 82.4 °F 89.5 °F 75.2 °F 79% 30.01 in 6.2 mi ENE 15.0 mph - N/A   Mostly Cloudy
12:00 PM 82.4 °F 89.5 °F 75.2 °F 79% 29.98 in 6.2 mi East 16.1 mph - N/A   Mostly Cloudy
1:00 PM 82.4 °F 88.2 °F 73.4 °F 74% 29.95 in 6.2 mi East 18.4 mph - N/A   Mostly Cloudy
2:00 PM 82.4 °F 88.2 °F 73.4 °F 74% 29.92 in 6.2 mi East 16.1 mph - N/A   Mostly Cloudy
3:00 PM 82.4 °F 88.2 °F 73.4 °F 74% 29.92 in 6.2 mi East 15.0 mph - N/A   Mostly Cloudy
4:00 PM 82.4 °F 87.2 °F 71.6 °F 70% 29.92 in 6.2 mi East 15.0 mph - N/A   Mostly Cloudy
5:00 PM 80.6 °F 84.6 °F 71.6 °F 74% 29.92 in 6.2 mi East 13.8 mph - N/A   Mostly Cloudy
6:00 PM 80.6 °F 85.4 °F 73.4 °F 79% 29.95 in 6.2 mi East 12.7 mph - N/A Rain Light Rain Showers
7:00 PM 78.8 °F - 71.6 °F 78% 29.95 in 6.2 mi East 12.7 mph - N/A   Mostly Cloudy
8:00 PM 78.8 °F - 73.4 °F 83% 29.95 in 6.2 mi East 11.5 mph - N/A   Mostly Cloudy
9:00 PM 78.8 °F - 73.4 °F 83% 29.95 in 6.2 mi East 13.8 mph - N/A   Mostly Cloudy
10:00 PM 78.8 °F - 73.4 °F 83% 29.95 in 6.2 mi East 13.8 mph - N/A   Mostly Cloudy
11:00 PM 78.8 °F - 71.6 °F 78% 29.95 in 6.2 mi East 16.1 mph - N/A   Mostly Cloudy